• In Latvia
  • List of Countries
  • For 7 days
  • Water Temperature
  • Satellite Maps
  • Weather Map
  • Weather Widgets
  • user-avatar
    Login

    Hourly Weather Beshkazak

    Today, 23 July, Monday

    Time Temperature Precipitation Wind Pressure Humidity
    00:00 +34°C° 0 mm 3 mps 694 mmHg 20%
    01:00 +33°C° 0 mm 3 mps 694 mmHg 20%
    02:00 +33°C° 0 mm 3 mps 694 mmHg 21%
    03:00 +33°C° 0 mm 3 mps 694 mmHg 21%
    04:00 +31°C° 0 mm 3 mps 694 mmHg 22%
    05:00 +34°C° 0 mm 3 mps 695 mmHg 21%
    06:00 +36°C° 0 mm 4 mps 695 mmHg 20%
    07:00 +37°C° 0 mm 4 mps 696 mmHg 19%
    08:00 +40°C° 0 mm 4 mps 696 mmHg 18%
    09:00 +41°C° 0 mm 4 mps 696 mmHg 16%
    10:00 +43°C° 0 mm 5 mps 696 mmHg 15%
    11:00 +43°C° 0 mm 5 mps 696 mmHg 15%
    12:00 +45°C° 0 mm 5 mps 696 mmHg 14%
    13:00 +45°C° 0 mm 6 mps 696 mmHg 14%
    14:00 +45°C° 0 mm 6 mps 695 mmHg 15%
    15:00 +45°C° 0 mm 6 mps 695 mmHg 16%
    16:00 +44°C° 0 mm 6 mps 695 mmHg 16%
    17:00 +41°C° 0 mm 6 mps 695 mmHg 19%
    18:00 +40°C° 0 mm 5 mps 695 mmHg 21%
    19:00 +37°C° 0 mm 5 mps 694 mmHg 23%
    20:00 +36°C° 0 mm 4 mps 695 mmHg 25%
    21:00 +35°C° 0 mm 4 mps 695 mmHg 26%
    22:00 +34°C° 0 mm 4 mps 695 mmHg 27%
    23:00 +33°C° 0 mm 4 mps 695 mmHg 29%

    Tomorrow, 24 July, Tuesday

    Time Temperature Precipitation Wind Pressure Humidity
    00:00 +33°C° 0 mm 4 mps 695 mmHg 30%
    01:00 +31°C° 0 mm 3 mps 695 mmHg 31%
    02:00 +30°C° 0 mm 3 mps 695 mmHg 32%
    03:00 +30°C° 0 mm 3 mps 695 mmHg 33%
    04:00 +29°C° 0 mm 3 mps 695 mmHg 34%
    05:00 +30°C° 0 mm 3 mps 695 mmHg 31%
    06:00 +33°C° 0 mm 3 mps 696 mmHg 29%
    07:00 +34°C° 0 mm 3 mps 696 mmHg 26%
    08:00 +36°C° 0 mm 3 mps 697 mmHg 23%
    09:00 +38°C° 0 mm 3 mps 697 mmHg 19%
    10:00 +39°C° 0 mm 3 mps 697 mmHg 16%
    11:00 +41°C° 0 mm 4 mps 697 mmHg 15%
    12:00 +41°C° 0 mm 4 mps 697 mmHg 15%
    13:00 +42°C° 0 mm 5 mps 697 mmHg 14%
    14:00 +41°C° 0 mm 5 mps 697 mmHg 15%
    15:00 +41°C° 0 mm 6 mps 696 mmHg 15%
    16:00 +40°C° 0 mm 6 mps 696 mmHg 16%
    17:00 +38°C° 0 mm 6 mps 696 mmHg 17%
    18:00 +35°C° 0 mm 5 mps 696 mmHg 19%
    19:00 +33°C° 0 mm 5 mps 696 mmHg 21%
    20:00 +32°C° 0 mm 5 mps 696 mmHg 21%
    21:00 +30°C° 0 mm 5 mps 696 mmHg 21%
    22:00 +29°C° 0 mm 4 mps 696 mmHg 22%
    23:00 +29°C° 0 mm 4 mps 696 mmHg 22%

    Day after tomorrow, 25 July, Wednesday

    Time Temperature Precipitation Wind Pressure Humidity
    00:00 +28°C° 0 mm 4 mps 696 mmHg 23%
    01:00 +28°C° 0 mm 4 mps 696 mmHg 23%
    02:00 +27°C° 0 mm 4 mps 696 mmHg 24%
    03:00 +27°C° 0 mm 4 mps 696 mmHg 25%
    04:00 +26°C° 0 mm 4 mps 696 mmHg 25%
    05:00 +28°C° 0 mm 4 mps 697 mmHg 24%
    06:00 +29°C° 0 mm 4 mps 697 mmHg 23%
    07:00 +30°C° 0 mm 4 mps 697 mmHg 22%
    08:00 +32°C° 0 mm 5 mps 698 mmHg 20%
    09:00 +34°C° 0 mm 5 mps 698 mmHg 18%
    10:00 +35°C° 0 mm 5 mps 698 mmHg 17%
    11:00 +36°C° 0 mm 5 mps 698 mmHg 17%
    12:00 +37°C° 0 mm 5 mps 698 mmHg 16%
    13:00 +37°C° 0 mm 5 mps 698 mmHg 16%
    14:00 +38°C° 0 mm 6 mps 697 mmHg 17%
    15:00 +36°C° 0 mm 6 mps 697 mmHg 18%
    16:00 +36°C° 0 mm 6 mps 697 mmHg 19%
    17:00 +34°C° 0 mm 5 mps 697 mmHg 22%
    18:00 +32°C° 0 mm 5 mps 697 mmHg 24%
    19:00 +30°C° 0 mm 4 mps 697 mmHg 27%
    20:00 +29°C° 0 mm 4 mps 697 mmHg 29%
    21:00 +28°C° 0 mm 4 mps 697 mmHg 31%
    22:00 +27°C° 0 mm 4 mps 697 mmHg 32%
    23:00 +27°C° 0 mm 4 mps 697 mmHg 33%

    26 July, Thursday

    Time Temperature Precipitation Wind Pressure Humidity
    00:00 +26°C° 0 mm 4 mps 697 mmHg 34%
    01:00 +26°C° 0 mm 3 mps 697 mmHg 35%
    02:00 +25°C° 0 mm 3 mps 697 mmHg 36%
    03:00 +25°C° 0 mm 3 mps 697 mmHg 37%
    04:00 +25°C° 0 mm 3 mps 697 mmHg 37%
    05:00 +26°C° 0 mm 3 mps 697 mmHg 35%
    06:00 +27°C° 0 mm 3 mps 698 mmHg 33%
    07:00 +28°C° 0 mm 3 mps 698 mmHg 31%
    08:00 +30°C° 0 mm 3 mps 699 mmHg 28%
    09:00 +31°C° 0 mm 3 mps 699 mmHg 25%
    10:00 +34°C° 0 mm 3 mps 699 mmHg 22%
    11:00 +35°C° 0 mm 4 mps 699 mmHg 21%
    12:00 +35°C° 0 mm 4 mps 699 mmHg 20%
    13:00 +36°C° 0 mm 4 mps 698 mmHg 19%
    14:00 +36°C° 0 mm 4 mps 698 mmHg 19%
    15:00 +36°C° 0 mm 5 mps 698 mmHg 19%
    16:00 +36°C° 0 mm 5 mps 698 mmHg 19%
    17:00 +34°C° 0 mm 5 mps 698 mmHg 21%
    18:00 +32°C° 0 mm 4 mps 698 mmHg 22%
    19:00 +30°C° 0 mm 4 mps 698 mmHg 24%
    20:00 +29°C° 0 mm 4 mps 698 mmHg 25%
    21:00 +28°C° 0 mm 3 mps 698 mmHg 26%
    22:00 +27°C° 0 mm 3 mps 698 mmHg 27%
    23:00 +27°C° 0 mm 3 mps 698 mmHg 28%

    27 July, Friday

    Time Temperature Precipitation Wind Pressure Humidity
    00:00 +26°C° 0 mm 3 mps 697 mmHg 30%
    01:00 +26°C° 0 mm 3 mps 697 mmHg 31%
    02:00 +25°C° 0 mm 3 mps 697 mmHg 31%
    03:00 +25°C° 0 mm 3 mps 697 mmHg 32%
    04:00 +25°C° 0 mm 3 mps 697 mmHg 33%
    05:00 +26°C° 0 mm 3 mps 698 mmHg 31%
    06:00 +27°C° 0 mm 3 mps 698 mmHg 29%
    07:00 +29°C° 0 mm 3 mps 698 mmHg 27%
    08:00 +30°C° 0 mm 3 mps 699 mmHg 24%
    09:00 +33°C° 0 mm 3 mps 699 mmHg 22%
    10:00 +34°C° 0 mm 3 mps 699 mmHg 20%
    11:00 +35°C° 0 mm 3 mps 698 mmHg 19%
    12:00 +36°C° 0 mm 3 mps 698 mmHg 18%
    13:00 +36°C° 0 mm 3 mps 698 mmHg 17%
    14:00 +36°C° 0 mm 4 mps 698 mmHg 17%
    15:00 +36°C° 0 mm 4 mps 697 mmHg 17%
    16:00 +36°C° 0 mm 4 mps 697 mmHg 17%
    17:00 +34°C° 0 mm 4 mps 697 mmHg 19%
    18:00 +33°C° 0 mm 3 mps 697 mmHg 20%
    19:00 +30°C° 0 mm 3 mps 697 mmHg 22%
    20:00 +29°C° 0 mm 3 mps 697 mmHg 23%
    21:00 +28°C° 0 mm 3 mps 697 mmHg 24%
    22:00 +28°C° 0 mm 3 mps 697 mmHg 26%
    23:00 +27°C° 0 mm 3 mps 697 mmHg 26%

    28 July, Saturday

    Time Temperature Precipitation Wind Pressure Humidity
    00:00 +27°C° 0 mm 3 mps 696 mmHg 27%
    01:00 +26°C° 0 mm 3 mps 696 mmHg 28%
    02:00 +26°C° 0 mm 3 mps 696 mmHg 29%
    03:00 +25°C° 0 mm 3 mps 696 mmHg 30%
    04:00 +25°C° 0 mm 2 mps 696 mmHg 31%
    05:00 +26°C° 0 mm 3 mps 697 mmHg 29%
    06:00 +28°C° 0 mm 3 mps 697 mmHg 28%
    07:00 +29°C° 0 mm 3 mps 698 mmHg 26%
    08:00 +30°C° 0 mm 3 mps 698 mmHg 23%
    09:00 +33°C° 0 mm 3 mps 698 mmHg 20%
    10:00 +34°C° 0 mm 3 mps 698 mmHg 18%
    11:00 +35°C° 0 mm 3 mps 698 mmHg 17%
    12:00 +35°C° 0 mm 3 mps 698 mmHg 16%
    13:00 +36°C° 0 mm 4 mps 698 mmHg 15%
    14:00 +36°C° 0 mm 4 mps 698 mmHg 14%
    15:00 +36°C° 0 mm 4 mps 698 mmHg 14%
    16:00 +36°C° 0 mm 4 mps 697 mmHg 14%
    17:00 +34°C° 0 mm 4 mps 697 mmHg 16%
    18:00 +33°C° 0 mm 3 mps 697 mmHg 18%
    19:00 +30°C° 0 mm 3 mps 697 mmHg 20%
    20:00 +29°C° 0 mm 3 mps 697 mmHg 21%
    21:00 +28°C° 0 mm 3 mps 697 mmHg 22%
    22:00 +27°C° 0 mm 3 mps 697 mmHg 23%
    23:00 +27°C° 0 mm 2 mps 697 mmHg 24%
    Show more